Tracking 17142 objects as of 28-May-2015
HD Live streaming from Space Station

ATLAS CENTAUR R/B

Track ATLAS CENTAUR R/B now!
ATLAS CENTAUR R/B is classified as:


NORAD ID: 10976
Int'l Code: 1978-068B
Perigee: 603.6 km
Apogee: 36,253.9 km
Inclination: 21.5 °
Period: 647.8 minutes
Semi major axis: 24799 km
RCS: 16.8333 m2 (large)
Launch date: June 29, 1978
Source: United States (US)

Note: This is a ROCKET BODY
Your satellite tracking list
Your tracking list is empty





NASA's NSSDC Master Catalog

Two Line Element Set (TLE):
1 10976U 78068B   15148.24958562 -.00000211  00000-0 -55043-3 0  9998
2 10976 021.4998 100.6693 7187615 159.1010 358.0926 02.22296149299544

Source of the keplerian elements: AFSPC

N2YO: 293